Regional Weather Roundup
Issued by NWS

Home | Current Version | Previous Version | Text Only | Print | Product List | Glossary Off
Versions: 1 2 3 4 5 6 7 8 9 10 11 12 13 14 15 16 17 18 19 20 21 22 23 24 25 26 27 28 29 30 31 32 33 34 35 36 37 38 39 40 41 42 43 44 45 46 47 48 49 50

000
ASUS43 KIND 241259
RWRIN

WEATHER ROUNDUP FOR INDIANA
NATIONAL WEATHER SERVICE INDIANAPOLIS IN
900 AM EDT MON APR 24 2017

NOTE: "FAIR" INDICATES FEW OR NO CLOUDS BELOW 12,000 FEET WITH NO
SIGNIFICANT WEATHER AND/OR OBSTRUCTIONS TO VISIBILITY.

* - STATION DOES NOT REPORT WEATHER SUCH AS PRECIPITATION OR FOG.

+ - STATION NOT QUALITY CONTROLLED BY THE NATIONAL WEATHER SERVICE.
    USE DATA WITH CAUTION...ESPECIALLY DEWPOINT AND RELATIVE
    HUMIDITY OBSERVATIONS.

INZ001>003-010>013-019-020-241400-
NORTHWEST INDIANA

CITY           SKY/WX    TMP DP  RH WIND       PRES   REMARKS
KNOX *+        SUNNY     46  21  36 CALM      30.02S
MONTICELLO +   SUNNY     51  32  48 NE6       30.00S

$$

LMZ046-743>745-241400-
SOUTHERN LAKE MICHIGAN

STATION/POSITION TIME  TEMP    WIND        PRES    WAVE
                       AIR SEA DIR/SP/G            HT
                 (UTC) (F)     (DEG/KT/KT) (MB)    (FT)
BURNS HARBOR     1240   48        CALM     1017.6R
MICHIGAN CITY    1230   49        CALM       N/A

$$

INZ004-005-014>016-021>024-241400-
NORTH CENTRAL INDIANA

CITY           SKY/WX    TMP DP  RH WIND       PRES   REMARKS
ELKHART        SUNNY     54  34  47 E6        30.05R
GOSHEN         SUNNY     52  36  54 E6        30.04R
SOUTH BEND     SUNNY     52  37  56 E5        30.06R

$$

INZ006>009-017-018-025>027-241400-
NORTHEAST INDIANA

CITY           SKY/WX    TMP DP  RH WIND       PRES   REMARKS
ANGOLA *+      SUNNY     52  37  58 E9        30.04S
FORT WAYNE     MOSUNNY   51  33  50 E13       30.03R
KENDALLVILLE + SUNNY     51  37  59 E8        30.04S

$$

INZ028-029-035-036-043>045-051>053-241400-
WEST CENTRAL INDIANA

CITY           SKY/WX    TMP DP  RH WIND       PRES   REMARKS
CRAWFORDSVL +  SUNNY     52  37  56 NE7       29.98R
LAFAYETTE      SUNNY     51  38  60 E7        30.00R
TERRE HAUTE    SUNNY     54  37  52 NE7       29.97R

$$

INZ030>032-037>040-046>048-054>057-064-065-241400-
CENTRAL INDIANA

CITY           SKY/WX    TMP DP  RH WIND       PRES   REMARKS
ANDERSON       SUNNY     52  36  54 NE6       30.00
COLUMBUS       SUNNY     50  37  62 NE7       29.96S
INDIANAPOLIS   MOSUNNY   54  36  50 NE9       29.96S
-EAGLE CREEK   SUNNY     56  34  43 E9        29.96F
KOKOMO +       SUNNY     52  36  54 E9        30.01R
SHELBYVILLE    SUNNY     57  36  45 E12       29.96F

$$

INZ033-034-041-042-049-050-058-059-241400-
EAST CENTRAL INDIANA

CITY           SKY/WX    TMP DP  RH WIND       PRES   REMARKS
MUNCIE         SUNNY     55  32  41 E12       29.99S
RICHMOND +     SUNNY     52  36  54 NE12      29.97F

$$

INZ060-061-067>069-081>083-085>088-241400-
SOUTHWEST INDIANA

CITY           SKY/WX    TMP DP  RH WIND       PRES   REMARKS
EVANSVILLE     SUNNY     58  40  51 NE8       29.92R
HUNTINGBURG *+ SUNNY     55  41  59 NE7       29.91S

$$

INZ062-063-066-070>080-084-089>092-241400-
SOUTH CENTRAL AND SOUTHEAST INDIANA

CITY           SKY/WX    TMP DP  RH WIND       PRES   REMARKS
BLOOMINGTON    SUNNY     55  35  47 NE8       29.93F
MADISON *+     SUNNY     55  37  50 NE9       29.94S
SEYMOUR +      SUNNY     55  39  54 NE10      29.93S

$$





USA.gov is the U.S. government's official web portal to all federal, state and local government web resources and services.